User: anonymous   Login
Location: Unspecified
(0.0000°N, 0.0000°E)
Time: 14:37:32
(UTC+00:00)
Language:

STARS - Orbit

View from above orbital plane
View from above orbital plane
View from above satellite
View from above satellite

Ground track
Ground track

The orbit data is extracted from the following two-line orbital elements,

1 33498U 09002G   17084.97432853 +.00000387 +00000-0 +60592-4 0  9993
2 33498 098.3159 256.1796 0009851 254.7701 257.1386 14.78510914439175
Epoch (UTC): 25 March 2017 23:23:01
Eccentricity: 0.0009851
inclination: 98.3159°
perigee height: 627 km
apogee height: 641 km
right ascension of ascending node: 256.1796°
argument of perigee: 254.7701°
revolutions per day: 14.78510914
mean anomaly at epoch: 257.1386°
orbit number at epoch: 43917

The dashed part of the orbit path shows where the satellite is in the earth's shadow,  

DLR